Wind_Speed
11 11 11 11 11 12 12 12 12 12 12 12 12 12 12 12 12 12 13 13 14 14 14 14 15 14 14 14 13 14 14 13 13 12 12 12 12 12 12 12 13 13 13
12 12 12 13 13 13 13 13 13 14 14 14 14 14 14 13 13 13 13 14 14 15 15 15 15 15 14 14 14 14 14 14 13 13 13 13 13 13 12 12 13 13 13
13 13 14 14 14 14 14 14 14 14 15 15 15 15 15 15 14 14 14 15 15 15 15 15 15 15 15 14 15 15 14 14 14 14 13 13 13 13 13 12 12 13 13
13 14 15 15 15 15 15 15 15 15 15 15 16 15 15 15 16 15 15 15 16 15 15 15 16 16 16 15 15 15 15 14 14 14 14 14 13 13 13 13 13 13 13
14 15 15 15 15 15 15 16 16 16 16 16 15 15 15 15 16 16 16 16 16 16 16 16 15 16 16 16 16 16 15 15 15 14 14 13 13 13 13 13 13 13 13
15 15 16 16 15 15 15 15 16 16 16 16 16 15 16 15 15 16 16 16 16 16 16 16 16 15 15 15 15 15 15 15 15 15 14 14 13 13 13 13 13 13 13
16 16 16 16 16 16 16 16 17 17 17 17 17 17 16 17 16 16 16 16 16 16 16 16 17 16 16 15 15 15 15 15 14 14 14 14 13 13 13 13 13 13 14
16 16 16 16 16 16 16 16 16 17 18 18 18 18 18 18 18 18 17 17 17 16 16 16 17 16 16 15 15 15 15 14 13 13 13 13 13 13 13 13 13 13 14
16 17 17 17 17 17 17 17 17 17 17 18 18 19 19 19 19 19 18 18 18 17 16 16 17 17 17 16 16 16 16 15 14 14 14 13 13 14 14 14 14 14 14
17 18 18 18 18 18 18 18 19 19 19 19 20 20 20 20 19 19 19 19 19 18 17 17 17 17 17 17 17 17 16 16 16 15 15 14 14 14 14 14 14 14 14
19 19 19 19 19 19 19 20 20 20 20 21 21 21 21 20 20 20 20 20 20 19 18 18 18 18 17 17 17 18 17 16 16 16 16 16 15 15 14 15 15 15 15
20 20 20 20 20 20 20 21 21 21 21 21 21 21 21 21 21 20 20 21 21 21 20 19 18 18 18 18 18 19 19 19 18 17 17 16 17 17 16 16 16 16 16
20 20 21 20 20 21 21 21 21 21 21 22 22 21 21 21 21 21 21 21 21 21 21 20 20 19 18 19 20 20 20 19 19 19 19 19 19 18 18 17 17 16 17
20 21 21 20 20 20 21 21 22 22 22 22 22 21 22 21 21 21 21 21 21 21 22 22 21 20 20 20 20 20 21 21 21 21 21 21 21 20 20 19 19 18 18
20 21 21 21 21 21 21 21 21 21 21 21 22 22 21 21 21 22 22 22 22 22 22 22 21 21 21 21 21 20 20 20 20 21 21 22 22 21 21 20 20 19 19
20 21 21 21 21 21 21 21 21 21 20 21 22 22 22 22 21 22 22 22 22 22 22 22 22 22 21 21 21 21 21 21 21 20 20 21 22 22 22 22 21 21 20
20 20 21 21 22 22 21 21 21 21 20 21 21 22 22 22 22 22 22 22 22 22 22 22 22 22 22 22 22 22 22 22 22 21 21 21 22 22 22 22 22 22 22
21 21 21 22 22 22 22 21 21 21 21 21 22 22 23 23 23 23 23 23 23 23 22 22 22 23 23 23 22 22 22 22 22 22 22 22 22 22 23 23 23 24 24
23 22 22 22 23 22 23 23 23 22 22 22 22 23 23 23 23 24 24 24 24 24 23 23 24 23 24 23 23 23 23 23 23 23 23 23 23 22 23 24 24 25 25
23 24 24 24 24 24 24 24 24 24 24 23 23 23 23 23 24 24 24 24 24 25 24 24 24 24 24 24 24 24 24 24 25 25 25 24 24 24 24 24 24 25 25
24 24 25 25 25 25 25 25 26 25 25 24 23 24 24 24 24 24 25 25 24 25 25 24 25 26 26 26 25 25 25 26 26 26 26 26 26 26 26 26 25 26 27
24 25 25 25 26 26 26 26 26 26 25 25 24 24 25 26 26 26 26 25 25 26 26 26 26 27 27 27 26 26 27 27 27 27 27 27 27 27 27 27 27 27 28
25 25 26 26 26 26 26 26 26 26 25 25 25 25 26 27 27 27 27 27 26 26 27 27 27 27 27 28 28 28 28 28 28 28 28 27 27 27 29 29 29 29 28
27 26 26 25 25 26 26 26 26 26 26 26 26 26 26 27 28 29 29 29 28 28 28 28 29 29 29 29 29 29 29 29 28 28 28 27 28 28 29 29 29 30 29
27 27 26 26 25 26 26 25 26 26 26 27 27 27 27 27 28 30 30 30 29 30 30 30 30 31 31 30 30 30 30 29 29 29 29 29 29 29 29 29 29 29 29
28 27 26 25 26 26 26 26 26 26 27 27 28 28 28 28 28 29 30 30 31 30 30 30 31 31 31 31 31 30 30 29 29 29 30 30 30 30 29 29 29 28 29
Wind_Direction
274 272 270 269 269 267 267 268 268 266 267 269 272 272 272 273 274 276 273 270 267 264 265 267 269 268 267 264 264 264 261 262 266 266 264 262 260 257 259 264 266 264 261
276 273 271 270 268 268 269 269 267 269 267 269 272 272 272 272 273 274 274 270 268 266 267 269 268 267 265 263 264 265 262 259 259 261 260 259 260 262 263 265 265 264 263
278 274 273 274 271 268 269 269 269 268 267 267 269 269 270 270 270 271 270 267 268 268 270 271 270 267 267 265 264 264 261 256 255 256 258 260 260 262 262 262 264 266 263
280 276 274 274 273 271 270 267 267 268 268 268 267 268 269 269 268 268 266 267 268 268 270 270 270 268 268 269 267 264 262 258 257 258 260 258 259 263 263 263 264 265 263
280 279 277 275 272 271 271 269 267 268 269 268 268 267 268 269 268 266 265 266 269 268 268 269 270 269 268 268 268 265 264 262 260 261 262 260 261 264 264 262 261 262 262
280 280 279 275 272 272 272 271 270 268 267 267 268 268 267 268 268 266 265 266 268 268 267 269 271 270 268 267 266 264 264 264 261 261 263 262 262 263 263 261 262 262 262
280 280 279 275 271 270 271 270 270 269 267 267 268 269 269 268 268 267 265 266 268 270 269 269 270 269 267 265 264 264 262 262 261 261 263 260 259 260 259 261 262 264 264
279 279 277 275 275 273 271 271 270 270 269 268 268 268 269 269 268 269 269 269 269 270 271 270 266 267 267 264 264 263 262 260 257 258 259 260 259 258 258 259 261 264 266
278 277 276 273 273 273 272 271 271 271 271 271 271 271 270 270 270 269 268 269 269 269 269 270 267 267 268 265 263 262 260 260 257 258 260 259 260 259 258 260 261 263 264
281 277 275 273 272 272 272 273 272 270 271 272 271 272 272 271 269 268 267 268 269 269 269 269 268 265 266 265 262 259 257 258 259 260 261 261 262 261 261 262 262 263 265
284 279 276 275 274 273 273 273 274 273 272 272 271 271 271 270 268 266 266 266 267 268 269 269 267 265 264 263 263 261 258 256 258 261 262 262 263 263 262 261 261 264 266
286 281 277 276 275 275 274 274 274 274 273 272 272 271 271 270 268 267 266 266 265 266 267 267 265 263 261 263 264 263 261 257 256 258 258 260 262 261 261 260 262 265 266
289 285 280 279 278 276 276 276 275 274 272 270 269 269 270 270 269 268 267 265 264 264 264 267 265 262 261 263 262 261 260 259 257 258 259 259 260 260 261 261 262 264 265
287 284 282 280 279 279 278 277 277 276 273 270 268 268 269 269 268 267 268 265 264 263 263 266 264 263 262 262 262 262 259 257 256 257 258 259 260 259 261 262 264 266 268
288 285 282 279 278 278 278 278 277 277 273 270 268 267 267 268 266 267 267 267 266 264 263 264 264 264 266 263 261 262 260 256 255 255 254 257 259 258 258 259 261 264 266
289 287 283 280 280 279 279 277 277 276 273 271 268 267 267 267 267 268 268 269 266 263 262 262 262 262 264 264 260 260 260 261 259 257 255 256 257 257 257 257 259 262 264
289 286 283 282 282 280 278 277 277 275 273 272 270 268 268 267 267 268 267 267 266 263 261 260 261 261 262 262 261 260 260 261 262 262 261 261 262 261 260 260 261 264 265
287 285 284 282 281 279 277 277 277 276 275 273 270 269 267 266 266 266 266 266 265 264 262 261 262 261 262 261 262 263 263 264 264 265 265 264 264 264 264 264 264 265 265
286 284 283 281 281 279 276 276 277 276 275 273 271 268 267 265 265 264 264 264 264 264 263 262 261 262 261 261 262 263 264 265 265 266 266 265 265 266 267 267 267 267 267
287 283 281 280 279 278 276 274 274 275 274 274 271 269 268 266 265 264 264 264 263 262 263 264 262 264 263 262 263 263 264 264 265 266 265 265 265 266 267 269 269 268 267
289 285 282 279 278 278 277 274 274 274 274 274 271 270 269 267 265 265 264 264 263 264 264 265 265 264 264 264 264 264 264 265 265 264 263 264 264 265 266 268 269 269 267
289 287 284 281 278 278 277 275 274 273 272 272 271 269 268 267 265 265 264 263 264 264 264 264 267 266 264 264 264 265 265 265 265 264 263 264 265 265 265 268 269 270 268
289 288 284 282 278 277 276 276 276 273 271 271 272 270 267 266 265 264 264 265 266 265 266 265 266 266 265 264 264 265 267 266 264 262 262 263 264 266 266 267 269 271 269
291 289 284 281 279 279 278 277 276 274 271 270 271 270 269 268 265 264 264 264 265 265 266 266 266 267 266 265 265 266 266 265 263 261 261 264 265 265 265 266 267 268 267
291 290 284 281 280 279 278 277 275 274 272 270 269 270 270 269 267 266 265 265 265 265 265 265 266 266 266 265 266 266 266 264 263 262 262 263 266 266 265 266 267 268 269
291 289 285 282 282 281 280 278 277 276 274 272 270 270 270 269 267 266 266 266 266 267 266 264 265 266 265 265 266 266 265 264 264 263 262 263 265 265 265 266 266 268 270
Height
5842 5842 5842 5842 5842 5842 5842 5842 5842 5842 5842 5842 5843 5843 5843 5843 5843 5843 5843 5843 5843 5843 5843 5844 5843 5844 5844 5844 5844 5845 5845 5845 5845 5846 5846 5846 5846 5847 5847 5848 5848 5849 5849
5839 5839 5839 5839 5839 5839 5839 5839 5839 5839 5839 5839 5840 5840 5840 5840 5840 5840 5840 5840 5840 5840 5840 5840 5840 5840 5840 5841 5841 5841 5842 5842 5842 5843 5843 5843 5844 5844 5845 5845 5845 5846 5846
5836 5836 5836 5836 5836 5836 5836 5836 5836 5836 5836 5836 5836 5836 5837 5836 5837 5837 5837 5837 5837 5837 5837 5837 5837 5837 5837 5837 5838 5838 5838 5838 5839 5839 5840 5840 5841 5841 5842 5842 5842 5842 5843
5833 5833 5833 5833 5833 5833 5832 5832 5833 5832 5832 5832 5833 5833 5833 5833 5833 5833 5833 5833 5833 5833 5833 5833 5833 5833 5833 5834 5834 5834 5835 5835 5836 5836 5836 5837 5838 5838 5838 5839 5839 5839 5839
5830 5830 5829 5829 5829 5829 5829 5829 5829 5829 5829 5829 5829 5829 5829 5829 5829 5829 5829 5830 5829 5830 5830 5829 5829 5829 5829 5830 5830 5831 5831 5832 5832 5833 5833 5834 5834 5835 5835 5835 5835 5836 5836
5826 5826 5826 5825 5825 5825 5825 5825 5825 5825 5825 5825 5825 5825 5825 5826 5826 5826 5826 5826 5826 5826 5826 5825 5825 5825 5825 5826 5826 5827 5827 5828 5829 5830 5830 5830 5831 5831 5831 5832 5832 5832 5833
5822 5822 5822 5821 5821 5821 5821 5821 5821 5821 5821 5821 5821 5821 5821 5822 5822 5822 5821 5821 5822 5821 5822 5822 5821 5821 5822 5822 5823 5823 5824 5825 5825 5826 5827 5827 5827 5827 5828 5828 5829 5829 5829
5818 5818 5817 5817 5817 5817 5817 5816 5816 5816 5816 5817 5817 5817 5817 5818 5817 5817 5817 5817 5817 5817 5817 5817 5817 5818 5818 5818 5819 5819 5820 5821 5822 5823 5823 5823 5824 5824 5825 5825 5825 5826 5826
5814 5813 5813 5813 5812 5812 5812 5812 5812 5812 5812 5812 5812 5812 5812 5813 5813 5813 5813 5813 5813 5813 5814 5814 5813 5814 5814 5814 5815 5816 5817 5818 5819 5819 5820 5820 5820 5821 5821 5822 5822 5822 5822
5809 5809 5808 5808 5807 5807 5807 5807 5807 5807 5807 5807 5807 5807 5808 5807 5808 5808 5808 5808 5808 5809 5809 5809 5809 5809 5810 5810 5811 5812 5813 5814 5815 5815 5816 5816 5817 5817 5817 5818 5818 5818 5818
5804 5804 5803 5803 5802 5802 5802 5802 5802 5802 5802 5802 5802 5802 5802 5802 5802 5803 5803 5803 5803 5804 5804 5804 5804 5805 5805 5806 5807 5808 5809 5810 5810 5811 5812 5812 5813 5813 5813 5814 5814 5814 5814
5799 5799 5798 5797 5797 5797 5797 5796 5796 5796 5796 5796 5796 5796 5796 5796 5797 5797 5798 5798 5798 5799 5799 5799 5800 5800 5801 5801 5802 5803 5804 5805 5805 5806 5807 5808 5808 5809 5809 5809 5810 5810 5810
5794 5793 5792 5792 5791 5791 5791 5791 5790 5790 5790 5790 5790 5791 5791 5791 5791 5792 5792 5792 5793 5793 5794 5794 5795 5795 5796 5797 5797 5798 5799 5799 5801 5801 5802 5803 5804 5804 5805 5805 5805 5805 5805
5789 5787 5787 5786 5785 5785 5785 5784 5784 5784 5784 5784 5784 5785 5785 5785 5785 5786 5786 5787 5787 5787 5788 5789 5789 5790 5791 5791 5792 5793 5794 5794 5795 5796 5797 5798 5799 5799 5800 5800 5800 5801 5801
5783 5781 5780 5780 5779 5779 5778 5778 5778 5778 5778 5778 5778 5778 5779 5779 5779 5780 5780 5781 5781 5782 5783 5783 5784 5784 5785 5786 5786 5787 5788 5789 5789 5790 5791 5792 5793 5794 5794 5795 5795 5796 5796
5776 5775 5774 5773 5773 5772 5772 5772 5772 5772 5772 5772 5772 5772 5773 5773 5773 5774 5774 5774 5775 5776 5776 5777 5778 5778 5779 5780 5780 5781 5782 5783 5784 5784 5785 5786 5787 5788 5788 5789 5790 5790 5791
5770 5769 5768 5767 5766 5766 5765 5765 5765 5765 5765 5766 5766 5766 5766 5766 5767 5767 5768 5768 5769 5769 5770 5771 5772 5772 5773 5774 5775 5775 5776 5777 5778 5778 5779 5780 5781 5781 5782 5783 5783 5784 5784
5763 5762 5761 5760 5760 5759 5758 5758 5758 5758 5758 5759 5759 5759 5760 5760 5760 5761 5761 5762 5762 5763 5764 5765 5765 5766 5767 5768 5769 5770 5770 5771 5772 5772 5773 5773 5774 5775 5775 5776 5777 5777 5778
5757 5755 5754 5753 5753 5752 5752 5751 5751 5751 5751 5752 5752 5752 5752 5753 5754 5754 5755 5755 5756 5756 5757 5758 5758 5759 5760 5761 5762 5763 5764 5764 5765 5766 5766 5767 5767 5768 5768 5769 5770 5770 5771
5750 5748 5747 5746 5745 5745 5744 5744 5744 5744 5744 5744 5744 5745 5745 5746 5746 5747 5747 5748 5749 5749 5750 5751 5751 5752 5753 5754 5755 5756 5757 5757 5758 5759 5759 5760 5760 5761 5761 5762 5762 5762 5763
5742 5740 5739 5738 5738 5737 5737 5736 5736 5736 5736 5737 5737 5737 5737 5738 5739 5739 5740 5741 5741 5742 5743 5743 5744 5745 5745 5747 5748 5749 5749 5750 5750 5751 5752 5752 5753 5754 5754 5754 5754 5754 5754
5734 5733 5731 5730 5730 5729 5729 5728 5728 5728 5729 5729 5729 5729 5730 5730 5731 5731 5732 5733 5734 5734 5735 5736 5736 5737 5738 5739 5739 5740 5741 5742 5743 5744 5744 5744 5745 5746 5746 5746 5746 5746 5746
5726 5725 5723 5722 5722 5721 5721 5720 5720 5720 5720 5721 5721 5721 5722 5722 5722 5723 5724 5724 5725 5726 5727 5728 5728 5729 5730 5731 5731 5732 5732 5733 5734 5735 5735 5736 5737 5737 5737 5737 5738 5737 5737
5718 5717 5715 5714 5713 5713 5712 5712 5712 5712 5712 5713 5713 5713 5713 5714 5714 5715 5715 5716 5716 5717 5718 5719 5720 5720 5721 5721 5722 5723 5723 5724 5725 5725 5726 5727 5728 5728 5728 5729 5729 5729 5729
5711 5709 5707 5706 5705 5705 5704 5704 5703 5704 5704 5704 5704 5705 5705 5705 5705 5705 5706 5707 5708 5708 5709 5709 5710 5711 5711 5712 5713 5713 5714 5715 5716 5716 5717 5718 5719 5719 5720 5720 5720 5720 5721
5703 5701 5699 5698 5697 5697 5696 5695 5695 5695 5695 5695 5695 5695 5695 5696 5696 5696 5697 5697 5698 5699 5699 5700 5700 5701 5702 5702 5703 5704 5705 5705 5706 5707 5708 5709 5709 5710 5711 5711 5711 5712 5712